This demonstration page uses our WeatherBlox Daily Observations layout. Learn more.

Left ArrowRight Arrow

Hourly Observations for June 30, 2018

Temp ( °F °C ) Dew Point ( °F °C ) Humidity (%) Winds ( mph kmh ) Pressure ( in mb ) Visibility ( mi km ) Precip ( " mm )
12:54 am 00:54 Clear 83 28.3 71 21.7 67 67 S 13 20 29.74 1007 10 16 0.00 0.00
1:54 am 01:54 Clear 81 27.2 71 21.7 72 72 S 16 26 29.73 1007 10 16 0.00 0.00
2:54 am 02:54 Clear 81 27.2 71 21.7 72 72 S 14 22 29.73 1007 10 16 0.00 0.00
3:54 am 03:54 Clear 80 26.7 71 21.7 74 74 S 10 17 29.75 1008 10 16 0.00 0.00
4:54 am 04:54 Mostly Cloudy 79 26.1 71 21.7 77 77 SSW 3 6 29.77 1008 10 16 0.00 0.00
5:54 am 05:54 Mostly Cloudy 79 26.1 71 21.7 77 77 NW 6 9 29.78 1008 10 16 0.00 0.00
6:54 am 06:54 Mostly Cloudy 79 26.1 73 22.8 82 82 ENE 3 6 29.80 1009 10 16 0.00 0.00
7:54 am 07:54 Mostly Sunny 81 27.2 72 22.2 74 74 SE 7 11 29.80 1009 10 16 0.00 0.00
8:54 am 08:54 Sunny 82 27.8 71 21.7 69 69 SSE 7 11 29.79 1009 10 16 0.00 0.00
9:54 am 09:54 Partly Cloudy 83 28.3 72 22.2 70 70 S 9 15 29.79 1009 10 16 0.00 0.00
10:54 am 10:54 Sunny 86 30 72 22.2 63 63 SSW 8 13 29.79 1009 10 16 0.00 0.00
11:54 am 11:54 Partly Cloudy 87 30.6 72 22.2 61 61 WNW 5 7 29.82 1010 10 16 0.00 0.00
12:54 pm 12:54 Partly Cloudy 87 30.6 75 23.9 67 67 N 12 19 29.81 1010 10 16 0.00 0.00
1:54 pm 13:54 Mostly Cloudy 86 30 74 23.3 67 67 N 10 17 29.82 1010 10 16 0.00 0.00
2:10 pm 14:10 Cloudy 85 29.4 74 23.3 70 70 NNE 12 19 29.77 1008 10 16 0.00 0.00
2:27 pm 14:27 Partly Cloudy 85 29.4 75 23.9 72 72 NNE 13 20 29.77 1008 10 16 0.00 0.00
2:54 pm 14:54 Mostly Sunny 87 30.6 75 23.9 67 67 NE 10 17 29.80 1009 10 16 0.00 0.00
3:47 pm 15:47 Mostly Cloudy 87 30.6 75 23.9 67 67 NE 8 13 29.74 1007 10 16 0.00 0.00
3:54 pm 15:54 Mostly Cloudy 88 31.1 75 23.9 66 66 ENE 10 17 29.79 1009 10 16 0.00 0.00
4:11 pm 16:11 Mostly Cloudy 87 30.6 75 23.9 67 67 ENE 7 11 29.74 1007 10 16 0.00 0.00
4:45 pm 16:45 Mostly Cloudy 86 30 76 24.4 72 72 N 14 22 29.74 1007 10 16 0.00 0.00
4:54 pm 16:54 Mostly Cloudy 86 30 76 24.4 72 72 N 10 17 29.78 1009 10 16 0.00 0.00
5:54 pm 17:54 Mostly Cloudy 85 29.4 76 24.4 75 75 NNE 13 20 29.74 1007 10 16 0.00 0.00
6:08 pm 18:08 Partly Cloudy 84 28.9 76 24.4 77 77 NNE 8 13 29.71 1006 9 14 0.00 0.00
6:41 pm 18:41 Mostly Cloudy with Nearby Thunderstorms 82 27.8 75 23.9 79 79 N 14 22 29.71 1006 6 10 0.00 0.03
6:54 pm 18:54 Partly Cloudy with Nearby Thunderstorms 82 27.8 75 23.9 79 79 NNW 16 26 29.72 1007 6 10 0.00 0.03
7:09 pm 19:09 Mostly Cloudy with Thunderstorms 80 26.7 75 23.9 85 85 E 16 26 29.74 1007 6 10 0.00 0.03
7:29 pm 19:29 Cloudy with Strong Thunderstorms 74 23.3 69 20.6 85 85 SE 17 28 29.74 1007 5 8 0.02 0.51
7:38 pm 19:38 Cloudy with Strong Thunderstorms 75 23.9 69 20.6 82 82 W 15 24 29.77 1008 2 3 0.12 3.05
7:41 pm 19:41 Cloudy with Strong Thunderstorms 75 23.9 71 21.7 88 88 WNW 24 39 29.80 1009 2 3 0.16 4.06
7:45 pm 19:45 Cloudy with Strong Thunderstorms 71 21.7 69 20.6 94 94 WNW 31 50 29.77 1008 1 1 0.22 5.59
7:49 pm 19:49 Cloudy with Strong Thunderstorms 70 21 66 19 88 88 NW 35 56 29.80 1009 0 0 0.42 10.67
7:54 pm 19:54 Cloudy with Strong Thunderstorms 68 20 66 18.9 93 93 NW 30 48 29.83 1010 0 0 0.67 17.02
7:57 pm 19:57 Mostly Cloudy with Strong Thunderstorms 68 20 66 18.9 93 93 NW 29 46 29.85 1011 1 1 0.14 3.56
8:06 pm 20:06 Cloudy with Thunderstorms 69 20.6 65 18.3 87 87 NNW 18 30 29.80 1009 3 4 0.36 9.14
8:08 pm 20:08 Windy with Storms Likely 69 20.6 65 18.3 87 87 NNW 20 31 29.80 1009 5 8 0.36 9.14
8:21 pm 20:21 Cloudy with Nearby Thunderstorms 69 20.6 65 18.3 87 87 N 14 22 29.83 1010 10 16 0.37 9.40
8:30 pm 20:30 Cloudy with Nearby Thunderstorms 70 21.1 65 18.3 84 84 NE 13 20 29.80 1009 8 13 0.37 9.40
8:42 pm 20:42 Mostly Cloudy with Light Rain 70 21.1 66 18.9 87 87 ESE 9 15 29.80 1009 10 16 0.37 9.40
8:54 pm 20:54 Mostly Cloudy 70 21.1 66 18.9 87 87 E 7 11 29.79 1009 10 16 0.37 9.40
9:54 pm 21:54 Clear 70 21.1 67 19.4 90 90 SE 9 15 29.73 1007 10 16 0.00 0.00
10:54 pm 22:54 Mostly Clear 72 22.2 68 20 87 87 SSE 13 20 29.75 1007 10 16 0.00 0.00
11:54 pm 23:54 Mostly Cloudy 71 21.7 68 20 90 90 ENE 3 6 29.75 1007 10 16 0.00 0.00

Powered by AerisWeather